Weather History for KPAH - October, 2011

Change the Weather History Date:

Sunday, October 16, 2011

  Actual Average Record
Temperature  
Mean Temperature 67 °F 59 °F  
Max Temperature 84 °F 71 °F 87 °F (1950)
Min Temperature 50 °F 47 °F 29 °F (1991)
Degree Days  
Heating Degree Days 0 7  
Month to date heating degree days 48 90  
Since 1 July heating degree days 84 129  
Cooling Degree Days 2 1  
Month to date cooling degree days 15 27  
Year to date cooling degree days 1698 1527  
Growing Degree Days 17 (Base 50)    
Moisture  
Dew Point 46 °F    
Average Humidity 48    
Maximum Humidity 66    
Minimum Humidity 29    
Precipitation  
Precipitation 0.00 in 0.13 in 3.02 in (1989)
Month to date precipitation 0.47 2.08  
Year to date precipitation 56.57 38.31  
Snow  
Snow 0.00 in 0.00 in 0.00 in (2002)
Month to date snowfall 0.0 0.0  
Since 1 July snowfall 0.0 0.0  
Since 1 September snowfall 0.0 0.0  
Snow Depth 0.00 in    
Sea Level Pressure  
Sea Level Pressure 29.94 in    
Wind  
Wind Speed 11 mph (SW)    
Max Wind Speed 24 mph    
Max Gust Speed 36 mph    
Visibility 10 miles    
Events      
T = Trace of Precipitation, MM = Missing Value Source: NWS Daily Summary

Daily Weather History Graph

Daily Weather History Graph

Search for Another Location

Airport or City:

Trip Planner

Search our weather history database for the weather conditions in past years. The results will help you decide how hot, cold, wet, or windy it might be!

Date:

Astronomy

Oct. 16, 2011 Rise Set
Actual Time 7:03 AM CDT 6:17 PM CDT
Civil Twilight 6:37 AM CDT 6:43 PM CDT
Nautical Twilight 6:07 AM CDT 7:13 PM CDT
Astronomical Twilight 5:37 AM CDT 7:43 PM CDT
Moon 9:09 PM CDT (10/16) 11:14 AM CDT (10/16)
Length of Visible Light 12h 06m
Length of Day
11h 13m
Waning Gibbous, 82% of the Moon is Illuminated
Oct 16
Waning Gibbous
Oct 19
Last Quarter
Oct 26
New
Nov 2
First Quarter
Nov 10
Full

Hourly Weather History & Observations

Time (CDT) Temp. Dew Point Humidity Pressure Visibility Wind Dir Wind Speed Gust Speed Precip Events Conditions
12:53 AM 55.9 °F 36.0 °F 47% 30.04 in 10.0 mi Variable 3.5 mph - N/A   Clear
1:53 AM 55.0 °F 36.0 °F 49% 30.04 in 10.0 mi South 3.5 mph - N/A   Clear
2:53 AM 55.0 °F 36.0 °F 49% 30.02 in 10.0 mi South 8.1 mph - N/A   Clear
3:53 AM 55.0 °F 37.0 °F 51% 30.02 in 10.0 mi Calm Calm - N/A   Clear
4:53 AM 50.0 °F 39.0 °F 66% 30.01 in 10.0 mi Calm Calm - N/A   Clear
5:53 AM 57.9 °F 39.0 °F 49% 30.00 in 10.0 mi SSW 6.9 mph - N/A   Clear
6:53 AM 57.9 °F 39.0 °F 49% 29.99 in 10.0 mi SSW 8.1 mph - N/A   Clear
7:53 AM 59.0 °F 42.1 °F 53% 29.99 in 10.0 mi SW 10.4 mph 16.1 mph N/A   Clear
8:53 AM 64.0 °F 45.0 °F 50% 30.01 in 10.0 mi SW 9.2 mph 18.4 mph N/A   Clear
9:53 AM 69.1 °F 48.0 °F 47% 30.00 in 10.0 mi SW 13.8 mph 23.0 mph N/A   Clear
10:53 AM 75.0 °F 51.1 °F 43% 29.99 in 10.0 mi SW 20.7 mph 27.6 mph N/A   Clear
11:53 AM 78.1 °F 51.1 °F 39% 29.97 in 10.0 mi SW 13.8 mph 23.0 mph N/A   Clear
12:53 PM 80.1 °F 50.0 °F 35% 29.93 in 10.0 mi WSW 21.9 mph 27.6 mph N/A   Clear
1:53 PM 82.0 °F 51.1 °F 34% 29.88 in 10.0 mi SW 20.7 mph 28.8 mph N/A   Clear
2:53 PM 82.9 °F 50.0 °F 32% 29.85 in 10.0 mi SW 21.9 mph 34.5 mph N/A   Clear
3:53 PM 84.0 °F 48.9 °F 29% 29.85 in 10.0 mi SW 19.6 mph 32.2 mph N/A   Clear
4:53 PM 82.9 °F 50.0 °F 32% 29.85 in 10.0 mi SW 10.4 mph 23.0 mph N/A   Clear
5:53 PM 80.1 °F 50.0 °F 35% 29.84 in 10.0 mi SW 10.4 mph - N/A   Clear
6:53 PM 77.0 °F 50.0 °F 39% 29.84 in 10.0 mi SW 8.1 mph - N/A   Clear
7:53 PM 73.9 °F 51.1 °F 45% 29.85 in 10.0 mi SW 6.9 mph - N/A   Clear
8:53 PM 73.0 °F 52.0 °F 48% 29.86 in 10.0 mi SSW 8.1 mph - N/A   Clear
9:53 PM 71.1 °F 51.1 °F 49% 29.90 in 10.0 mi WNW 4.6 mph - N/A   Clear
10:53 PM 64.9 °F 46.9 °F 52% 29.93 in 10.0 mi NNE 16.1 mph - N/A   Clear
11:53 PM 61.0 °F 46.0 °F 58% 29.95 in 10.0 mi NNE 8.1 mph - N/A   Clear